Location: Unspecified
(25.2826°S, 0.0000°E)
Time: 08:31:32
(UTC+00:00)

NOAA 16 DEB - Visible Passes

Search period start: 04 April 2026 00:00
Search period end: 14 April 2026 00:00
Orbit: 722 x 766 km, 99.0° (Epoch: 28 March)

Date Brightness Start Highest point End Pass type
(mag) Time Alt. Az. Time Alt. Az. Time Alt. Az.
4 Apr ? 19:20:35 27° NE 19:23:13 56° ESE 19:28:11 10° S visible
4 Apr ? 21:00:39 10° WNW 21:01:50 11° W 21:03:03 10° W visible
5 Apr ? 18:37:26 11° ENE 18:40:33 19° ESE 18:44:01 10° SSE visible
5 Apr ? 20:17:12 29° NW 20:18:41 34° W 20:23:17 10° SW visible
6 Apr ? 19:34:01 43° NNE 19:35:43 76° ESE 19:40:48 10° S visible
7 Apr ? 18:50:50 19° ENE 18:52:58 25° ESE 18:57:03 10° SSE visible
7 Apr ? 20:30:36 25° WNW 20:31:14 25° W 20:35:23 10° SW visible
8 Apr ? 19:47:25 63° N 19:48:12 79° WNW 19:53:16 10° SSW visible
9 Apr ? 19:04:13 30° E 19:05:21 33° ESE 19:09:52 10° S visible
9 Apr ? 20:43:59 19° W 20:43:59 19° W 20:47:16 10° SW visible
10 Apr ? 18:21:19 10° E 18:22:44 11° ESE 18:24:10 10° SE visible
10 Apr ? 20:00:46 58° W 20:00:46 58° W 20:05:38 10° SSW visible
11 Apr ? 19:17:32 45° E 19:17:44 45° ESE 19:22:32 10° S visible
11 Apr ? 20:57:18 13° W 20:57:18 13° W 20:58:42 10° WSW visible
12 Apr ? 18:34:18 15° ESE 18:35:03 15° ESE 18:37:53 10° SE visible
12 Apr ? 20:14:04 38° WSW 20:14:04 38° WSW 20:17:51 10° SSW visible
13 Apr ? 19:30:49 55° SE 19:30:49 55° SE 19:35:04 10° S visible
